Flag for Italy Weather past 2 weeks in Palermo, Italy

Now
81 °F

Passing clouds.


Feels Like: 83 °F
Forecast: 76 / 81 °F
Wind: 7 mph from Northeast

Location: Palermo / Punta Raisi

Current Time: Jul 29, 2014 at 10:08:06 AM

Latest Report: Jul 29, 2014 at 9:20 AM


Visibility: N/A

Pressure: 29.86 "Hg

Humidity: 62%

Dew point: 66 °F

Location of PalermoLocation

Historic Weather in Palermo — Graph

°F

Palermo temperature yesterday

Maximum temperature yesterday: 81 °F (at 11:50 AM)
Minimum temperature yesterday: 75 °F (at 5:20 AM)
Average temperature yesterday: 78 °F

Past Weeks' High & Low Weather Summary

 TemperatureHumidityPressure
High99 °F (Jul 26, 1:20 PM)89% (Jul 17, 7:20 AM)30.07 "Hg (Jul 17, 7:20 AM)
Low68 °F (Jul 15, 4:50 AM)18% (Jul 26, 3:20 PM)29.80 "Hg (Jul 23, 2:50 AM)
Average78 °F72%29.96 "Hg
* Reported Jul 14 8:20 AM — Jul 29 8:50 AM, Palermo, Weather by CustomWeather, © 2014

Note: Actual official high and low records may vary slightly from our data, if they occured in-between our weather recording intervals... More about our weather records

Advertising

Palermo weather history for previous 24 hours

 ConditionsComfort  
Time TempWeatherWind HumidityBarometerVisibility
8:50 AM
Jul 29
79 °FSunny.15 mph61%29.86 "Hg10 mi
8:20 AM79 °FSunny.14 mph61%29.86 "Hg10 mi
7:50 AM79 °FSunny.13 mph58%29.86 "Hg10 mi
7:20 AM75 °FSunny.6 mph65%29.86 "Hg10 mi
6:50 AM70 °FPassing clouds.5 mph69%29.86 "HgN/A
6:20 AM72 °FClear.3 mph69%29.86 "Hg10 mi
5:50 AM73 °FClear.1 mph69%29.86 "Hg10 mi
5:20 AM73 °FClear.1 mph65%29.86 "Hg10 mi
4:50 AM72 °FClear.2 mph69%29.86 "Hg10 mi
4:20 AM72 °FClear.3 mph69%29.86 "Hg10 mi
3:50 AM73 °FClear.1 mph74%29.86 "Hg10 mi
3:20 AM73 °FClear.6 mph74%29.86 "Hg10 mi
2:50 AM73 °FClear.6 mph74%29.89 "Hg10 mi
2:20 AM73 °FClear.5 mph69%29.89 "Hg10 mi
1:50 AM73 °FClear.6 mph69%29.89 "Hg10 mi
1:20 AM73 °FClear.3 mph69%29.92 "Hg10 mi
12:50 AM75 °FClear.3 mph74%29.92 "Hg10 mi
12:20 AM75 °FPassing clouds.3 mph74%29.92 "HgN/A
11:50 PM
Jul 28
75 °FClear.3 mph69%29.92 "Hg10 mi
11:20 PM75 °FClear.6 mph74%29.92 "Hg10 mi
10:50 PM77 °FClear.12 mph69%29.92 "Hg10 mi
10:20 PM77 °FClear.14 mph69%29.95 "Hg10 mi
9:50 PM77 °FClear.12 mph74%29.95 "Hg10 mi
9:20 PM77 °FSunny.12 mph74%29.95 "Hg10 mi
8:50 PM77 °FSunny.13 mph74%29.92 "Hg10 mi
8:20 PM77 °FSunny.14 mph79%29.92 "Hg10 mi
7:50 PM79 °FSunny.13 mph70%29.92 "Hg10 mi
7:20 PM79 °FSunny.13 mph74%29.92 "Hg10 mi
6:50 PM79 °FSunny.12 mph74%29.95 "Hg10 mi
6:20 PM79 °FSunny.12 mph74%29.95 "Hg10 mi
5:50 PM79 °FSunny.12 mph74%29.95 "Hg10 mi
5:20 PM79 °FSunny.12 mph70%29.95 "Hg10 mi
4:50 PM81 °FSunny.10 mph70%29.95 "Hg10 mi
4:20 PM81 °FSunny.10 mph70%29.95 "Hg10 mi
3:50 PM79 °FSunny.10 mph74%29.95 "Hg10 mi
3:20 PM81 °FSunny.9 mph70%29.98 "Hg10 mi
2:50 PM81 °FSunny.9 mph74%29.95 "Hg10 mi
2:20 PM81 °FSunny.8 mph70%29.98 "Hg10 mi
1:50 PM81 °FSunny.9 mph70%29.98 "Hg10 mi
12:50 PM81 °FSunny.7 mph74%29.98 "Hg10 mi
11:50 AM81 °FSunny.6 mph74%29.98 "Hg10 mi
11:20 AM79 °FSunny.5 mph74%29.98 "Hg10 mi
10:50 AM79 °FPassing clouds.7 mph74%29.98 "HgN/A
10:20 AM79 °FSunny.8 mph70%29.95 "Hg10 mi
Weather by CustomWeather, © 2014

See weather overviewHow to use our weather pages